Theta_e
320 319 317 317 316 314 312 311 311 311 312 312 312 312 312 312 313 313 315 315 316 315 316 318 319 314 305 301 299 308 312 312 310 308 303 300 298 298 295 296 297 295 294 295 296 297 296
321 319 318 317 317 315 313 312 311 311 312 312 312 312 312 312 312 313 314 315 315 315 315 318 317 312 302 295 306 307 306 309 308 307 304 302 299 300 297 295 295 296 295 295 296 295 295
323 321 319 318 317 316 315 312 312 311 311 312 312 312 312 312 312 313 313 314 315 315 315 317 315 304 302 298 305 307 307 307 307 306 302 303 303 300 298 295 296 295 292 293 294 295 293
324 322 320 319 318 317 316 314 313 312 312 313 313 313 312 313 312 313 314 314 315 315 315 316 310 304 297 305 307 304 307 306 307 306 304 304 305 301 298 298 295 292 291 289 292 294 294
323 323 322 321 320 318 317 315 314 313 313 313 314 313 313 314 313 314 314 315 312 313 313 311 303 301 295 307 302 303 305 303 305 304 304 302 302 298 296 292 290 290 286 287 289 292 292
323 323 322 322 321 319 318 317 315 315 314 314 314 314 314 314 313 314 314 314 309 309 306 300 300 298 299 296 300 301 304 304 302 300 300 300 298 295 294 291 286 285 286 287 287 290 291
323 322 322 321 321 320 319 318 317 315 315 315 315 314 313 313 312 313 308 304 300 299 300 294 294 294 296 300 301 300 302 301 300 298 292 294 293 288 289 290 289 288 287 286 288 290 289
323 322 321 321 321 320 319 318 317 316 315 315 315 314 313 312 312 309 306 299 299 301 292 295 295 296 298 299 294 298 303 296 295 291 291 292 288 291 291 291 289 288 286 287 289 289 289
322 322 321 321 321 320 319 318 318 317 316 315 315 314 312 311 311 307 302 301 305 303 294 292 294 295 296 298 293 294 299 295 292 290 289 289 289 291 290 289 287 287 285 286 285 289 289
322 321 321 320 320 319 319 318 317 317 316 315 314 313 310 310 303 302 300 305 306 304 295 290 291 294 296 296 292 297 297 295 293 288 289 288 289 288 288 287 288 284 288 287 286 287 284
322 321 320 319 319 318 318 317 316 316 315 314 314 311 309 305 302 299 302 305 304 303 288 290 291 298 296 293 293 294 296 296 290 289 287 285 286 286 286 287 289 286 288 287 287 286 285
322 321 320 319 318 318 317 317 316 316 315 314 313 309 308 303 303 302 305 305 305 292 289 289 290 290 290 292 292 294 292 296 294 289 289 287 291 289 288 289 289 288 287 285 284 285 284
322 321 320 319 318 317 317 317 317 316 315 314 312 307 305 304 298 304 304 304 289 288 290 287 287 288 288 287 289 290 287 288 288 288 286 284 285 288 289 286 288 286 282 284 284 285 284
316 320 319 319 318 317 317 317 317 316 315 314 310 306 302 302 304 304 303 298 288 289 289 286 288 287 286 287 288 289 286 286 285 285 282 287 286 284 288 287 285 284 282 281 281 280 280
314 314 317 318 318 317 317 316 316 315 314 312 307 302 301 301 301 303 300 287 289 291 291 287 287 287 287 286 287 287 286 286 285 285 288 284 283 286 287 288 287 283 282 283 277 272 277
312 312 313 315 317 317 316 316 315 314 313 309 303 300 299 302 301 302 292 289 290 292 289 290 292 290 289 285 285 286 286 287 285 286 285 285 285 282 285 288 288 285 285 279 281 280 281
311 312 312 313 315 316 316 316 315 314 311 308 303 298 299 301 300 296 287 288 291 291 290 292 290 286 287 287 286 286 287 287 287 285 285 284 287 281 283 284 284 283 283 281 281 278 280
310 311 311 311 313 315 316 316 315 314 310 307 301 288 299 299 289 285 286 289 291 288 290 289 291 290 290 286 286 286 285 286 289 287 283 284 286 281 284 283 285 284 283 282 279 279 277
306 308 310 311 311 311 315 315 315 313 310 303 296 293 299 297 286 285 286 288 289 287 289 289 288 291 289 287 287 286 285 287 288 287 285 285 285 285 282 281 283 282 283 284 280 280 278
303 305 307 309 311 310 310 314 314 312 311 303 294 286 290 293 289 290 286 287 287 289 289 289 288 289 287 286 285 286 285 287 288 287 289 287 283 285 286 286 284 280 281 284 282 280 280
301 303 303 305 307 309 309 310 314 312 311 302 293 287 288 284 284 289 291 289 286 285 288 288 287 290 289 285 284 284 286 285 287 289 286 284 282 277 280 280 281 282 282 282 278 282 284
300 302 301 302 304 305 308 309 309 312 310 302 289 288 289 287 288 289 290 288 289 288 287 286 289 289 291 290 292 288 285 285 286 287 285 285 282 277 279 276 278 278 280 281 281 281 278
300 300 301 300 301 303 304 308 309 312 310 301 297 296 297 289 288 289 290 291 291 292 289 290 290 288 287 292 290 288 288 288 289 287 284 282 280 279 284 274 275 280 278 280 282 283 283
300 299 299 299 300 301 302 304 308 308 310 305 301 299 293 286 289 289 292 293 291 291 292 288 290 291 288 291 291 288 286 285 286 285 287 282 281 280 283 278 282 290 282 284 283 284 285
300 300 299 298 297 299 301 302 303 307 308 307 302 301 296 287 290 290 292 292 294 294 289 289 289 291 294 291 285 282 281 282 281 282 283 283 281 280 281 281 285 288 280 281 281 288 286
299 299 299 298 297 297 299 300 302 303 307 306 303 304 301 292 288 295 291 293 288 289 286 284 288 292 291 287 285 281 278 283 278 278 282 281 281 282 276 280 281 289 284 284 284 285 290
299 299 299 299 297 296 296 297 300 301 303 306 302 305 301 293 295 296 291 291 294 290 287 284 284 285 287 285 283 281 282 282 278 277 275 278 278 278 277 280 283 287 283 284 285 291 287
299 298 298 298 298 296 296 296 297 299 302 304 302 304 298 291 293 298 299 295 292 293 286 284 284 283 283 284 285 283 283 278 281 281 278 278 277 276 276 277 278 284 282 284 291 289 287
298 298 297 297 297 296 295 295 296 297 300 302 299 304 303 294 292 297 298 300 301 300 289 287 289 284 288 286 285 286 283 278 282 281 279 281 284 280 281 282 287 286 289 288 287 289 289
Wind_Speed
14 11 9 6 5 4 3 3 2 3 5 7 8 8 9 8 8 7 10 9 8 7 8 8 7 4 1 8 4 8 18 13 5 5 7 4 5 4 7 6 6 10 4 4 3 3 4
13 14 10 9 7 5 5 4 2 3 5 6 7 10 10 11 9 9 9 10 9 7 7 9 7 4 1 7 4 9 10 7 9 9 10 6 5 8 10 5 4 5 5 5 5 2 3
14 14 13 11 9 7 7 4 4 3 2 4 7 8 11 10 12 9 8 7 9 8 8 8 7 3 10 5 3 8 7 5 6 6 7 4 3 3 4 7 2 5 2 2 6 6 1
13 13 13 11 10 10 8 7 4 3 1 4 6 8 9 11 11 12 11 6 8 8 8 6 4 2 5 1 1 7 7 2 6 8 6 3 7 11 5 5 3 1 3 2 3 6 1
14 13 13 13 12 11 10 9 6 5 4 2 4 6 8 10 11 11 12 4 6 6 3 3 2 2 4 2 2 4 5 4 3 4 8 3 5 6 3 2 3 2 2 1 2 1 4
16 14 13 13 13 12 11 9 8 6 4 4 5 6 9 9 9 11 11 2 6 4 4 1 2 2 2 2 3 4 3 4 4 1 3 6 5 4 5 4 2 3 5 3 3 2 4
16 15 15 13 15 14 13 10 8 7 6 3 4 7 7 9 9 9 5 2 2 1 9 4 1 3 2 6 2 5 4 3 2 6 3 5 5 7 6 5 2 2 7 8 2 2 8
17 16 15 15 16 15 13 11 11 9 7 5 2 7 7 9 10 5 2 2 2 2 8 3 1 3 1 3 1 9 6 2 4 4 1 2 5 4 5 4 2 4 7 6 5 2 6
19 18 17 16 17 16 14 13 12 10 8 6 2 5 9 8 6 4 3 3 1 2 4 3 2 3 2 2 3 7 5 2 5 5 5 3 5 4 4 5 3 1 4 8 7 10 3
21 20 19 18 17 17 16 15 13 11 10 7 4 4 8 11 2 3 3 0 2 3 3 1 2 3 2 1 4 3 3 2 4 4 4 6 1 3 5 4 2 1 3 7 9 8 3
22 22 21 19 18 17 15 15 14 13 11 8 6 1 6 7 2 1 5 3 2 2 2 2 3 2 1 2 2 5 2 2 4 4 1 2 1 1 2 3 1 3 4 5 7 6 4
23 23 22 21 20 19 17 16 15 13 12 10 7 0 1 1 2 2 4 4 1 6 4 1 2 2 1 2 3 2 2 7 3 4 7 3 1 3 3 2 2 2 2 3 3 4 1
22 23 23 23 21 21 20 18 16 14 12 10 7 5 3 2 3 3 4 2 5 4 1 3 2 1 1 2 2 2 3 2 1 3 1 0 1 1 1 3 3 2 1 1 1 1 2
14 20 25 24 23 22 21 20 18 15 12 11 9 4 4 1 2 5 2 4 1 1 5 2 5 2 0 1 1 1 2 2 2 2 3 3 2 2 3 4 1 4 2 0 3 2 3
6 10 6 24 25 24 23 22 20 17 16 13 10 1 4 1 2 3 3 4 8 7 8 11 5 5 1 0 2 1 2 3 2 5 4 4 1 0 3 2 5 3 1 2 5 1 2
4 4 8 8 23 25 25 23 21 20 19 17 4 1 3 3 3 2 5 6 5 3 4 2 6 2 2 1 0 1 4 3 4 1 1 5 2 1 1 1 2 1 4 2 2 2 2
3 3 5 7 6 24 25 25 24 23 23 17 3 3 2 4 1 2 5 8 4 1 2 2 4 6 4 2 3 2 2 2 3 4 1 4 0 2 1 5 3 4 3 2 1 3 0
11 3 3 4 9 13 24 26 27 27 25 13 4 2 1 1 3 2 5 8 5 5 1 2 1 6 7 6 4 4 4 2 5 6 4 3 2 3 1 1 3 2 2 3 2 3 1
8 9 6 1 4 11 20 28 30 32 28 8 5 2 1 2 7 4 2 4 3 6 5 4 4 4 1 7 2 3 2 2 5 5 3 6 1 1 1 1 2 5 5 4 3 0 7
6 7 9 11 3 3 7 11 30 36 32 5 6 4 1 2 1 5 6 4 6 1 4 3 5 5 4 5 3 1 3 2 3 1 2 3 1 4 3 1 5 5 6 11 6 4 5
8 6 7 8 12 1 2 7 14 34 33 7 1 6 7 8 6 4 6 12 7 7 2 4 1 5 11 6 4 5 2 2 2 3 2 1 4 2 3 3 2 3 5 13 13 7 8
12 7 3 3 8 10 5 5 4 30 32 5 7 6 1 4 12 13 8 11 17 6 10 8 6 10 11 11 11 11 9 5 6 6 7 4 1 1 5 1 4 6 12 12 15 7 13
11 10 7 3 3 6 8 8 5 13 20 3 3 3 1 9 7 14 15 10 13 8 3 3 7 8 8 5 8 5 5 3 6 8 10 8 6 4 5 2 4 8 12 18 10 9 12
15 12 9 5 6 4 6 8 8 1 25 3 3 4 4 4 10 12 12 19 13 14 8 3 5 5 7 18 14 10 10 7 6 3 3 6 4 1 3 2 5 5 2 7 16 8 19
16 12 10 6 4 6 5 5 9 6 6 7 2 3 4 4 9 4 10 7 12 6 5 7 2 2 17 7 5 4 2 3 1 1 3 1 4 3 3 4 8 6 6 9 11 9 28
19 15 12 10 5 3 5 5 5 7 6 2 2 2 3 4 11 11 8 9 7 7 5 4 3 6 2 4 4 7 8 7 6 3 1 3 2 2 3 4 7 3 3 4 3 7 5
17 16 14 13 8 4 4 6 7 7 9 2 3 3 2 4 5 12 8 12 6 5 5 6 7 2 3 4 4 5 6 2 9 11 8 5 3 7 3 5 9 8 6 6 2 5 2
17 15 12 14 11 6 1 4 7 8 10 6 2 6 3 2 3 4 11 8 5 10 8 7 6 1 2 5 5 5 5 9 5 6 9 12 11 7 4 4 12 9 7 9 1 1 0
16 15 12 11 12 9 4 3 6 9 11 10 2 5 5 2 3 2 3 3 11 22 10 13 3 8 8 5 4 3 4 4 5 7 2 7 9 11 13 12 1 14 3 7 1 3 2
Wind_Direction
180 185 197 191 192 187 174 133 58 48 16 12 11 1 353 14 350 359 337 328 324 325 320 321 335 336 214 62 55 330 331 334 19 62 57 66 57 94 96 99 82 83 124 80 105 80 55
194 181 187 191 199 200 203 179 157 89 7 11 2 354 353 351 345 348 345 331 326 323 319 319 335 320 5 82 334 336 334 337 21 66 65 43 78 101 85 67 40 77 118 112 68 75 44
202 193 184 187 202 188 218 215 187 148 8 358 359 1 347 341 338 340 338 342 324 315 311 318 345 41 57 96 350 348 9 8 356 49 79 35 84 71 127 108 80 113 192 174 44 0 52
206 201 193 195 195 205 196 213 209 239 204 332 353 349 343 334 341 335 329 343 327 312 306 308 357 47 83 277 308 22 356 36 47 61 69 42 71 85 43 120 84 84 253 229 61 352 202
208 204 202 195 201 206 203 209 200 227 273 307 338 332 328 334 341 333 323 348 356 311 343 353 340 43 100 304 39 344 24 354 326 64 54 55 68 69 84 81 145 96 304 306 202 82 308
211 206 210 209 199 198 201 215 204 211 243 296 326 323 330 330 342 336 322 60 23 337 338 162 100 79 22 336 327 338 9 353 43 47 79 36 65 94 59 17 43 353 297 259 288 46 316
211 208 205 208 205 200 194 199 214 216 221 242 306 315 325 329 332 347 329 113 61 28 37 53 19 79 1 313 277 19 11 348 359 54 58 19 84 72 67 58 30 336 286 297 334 33 314
206 208 207 201 202 205 196 194 206 210 223 224 287 303 326 331 320 24 345 205 113 97 100 16 61 88 54 304 31 22 0 56 37 72 6 90 86 113 111 99 89 9 313 324 287 286 294
205 204 204 206 201 203 199 191 201 208 214 226 236 307 326 326 314 88 30 70 107 227 73 17 12 32 332 357 56 358 5 79 70 59 32 86 101 143 114 88 359 56 359 337 300 317 267
205 203 201 202 204 203 200 193 196 202 203 209 220 305 334 324 268 154 84 139 333 323 84 11 7 30 335 71 60 342 18 69 59 117 71 69 64 172 129 95 359 12 22 314 293 310 358
205 202 201 199 200 201 200 195 192 198 197 198 219 251 352 14 115 228 127 126 6 229 43 27 9 331 353 56 58 32 5 34 92 111 214 108 138 202 129 115 167 60 324 311 302 297 286
207 202 200 197 197 195 195 197 192 199 190 196 187 143 23 130 101 34 138 133 170 51 242 146 336 352 271 14 73 302 62 55 95 89 52 88 92 0 36 124 116 34 222 248 284 272 93
216 203 200 198 197 192 191 194 194 191 188 181 169 113 78 135 135 145 241 99 41 157 327 165 144 33 342 10 71 40 29 63 169 103 171 198 89 125 334 170 142 86 291 281 253 51 356
19 218 199 199 197 193 191 189 187 183 178 170 156 132 62 46 170 166 236 65 169 256 208 214 123 107 251 326 71 74 111 197 160 103 119 184 230 14 21 339 63 79 350 166 291 294 315
353 9 300 199 196 193 190 187 180 176 163 152 139 114 93 231 226 234 119 109 212 210 158 150 102 112 314 217 337 299 218 218 158 181 179 138 134 64 42 351 291 142 247 103 106 25 247
347 9 344 359 205 195 187 183 178 168 154 146 145 194 167 147 293 227 79 214 214 154 134 221 122 164 223 168 3 270 189 146 166 181 182 186 100 48 62 254 31 13 119 205 171 280 330
330 328 330 1 298 197 188 179 174 164 154 148 124 197 104 129 12 62 166 218 196 194 239 164 145 120 134 176 196 242 234 161 175 142 81 156 30 72 310 201 197 147 156 101 17 310 232
23 294 284 5 341 225 192 181 173 160 155 154 138 201 59 276 118 315 178 186 142 166 209 273 99 108 132 131 236 227 238 236 149 161 163 167 121 161 214 26 337 339 138 199 229 199 42
5 1 359 317 15 23 210 186 173 160 160 142 138 110 115 300 180 221 258 127 176 138 195 196 150 116 126 129 245 212 225 40 142 175 170 181 219 155 210 213 258 234 183 170 111 281 206
306 353 1 20 265 58 5 221 178 167 169 121 124 153 304 218 325 173 147 177 184 225 155 173 126 90 119 104 157 230 228 145 179 216 100 151 165 227 254 160 111 185 198 193 187 200 164
274 294 313 359 8 11 329 11 207 175 168 118 186 206 187 185 218 217 195 164 146 175 242 174 10 190 151 122 139 196 172 150 152 206 128 217 252 198 269 255 240 246 191 187 199 203 219
256 260 309 319 353 354 349 286 331 184 168 156 145 147 230 151 149 177 190 199 186 162 154 215 202 179 183 162 180 187 150 179 208 167 174 171 226 146 272 290 237 259 237 205 219 227 268
245 249 254 288 309 334 347 344 294 195 171 164 135 121 208 164 158 182 208 178 203 150 212 128 165 149 200 178 87 57 63 94 146 169 185 171 154 175 263 334 286 264 224 198 187 208 206
224 231 246 261 286 292 341 333 329 323 208 95 158 130 145 214 195 193 186 199 194 200 199 114 148 167 126 113 90 63 61 70 83 78 165 164 168 170 283 291 245 245 145 191 211 227 212
219 214 212 219 269 276 293 324 328 332 274 208 131 154 170 188 194 191 196 177 173 116 124 145 151 282 150 84 94 107 47 41 210 348 189 269 151 169 238 226 309 259 195 172 186 266 209
228 211 204 203 213 275 278 299 319 339 324 212 149 171 185 159 213 176 176 174 154 160 110 82 12 132 55 109 141 177 187 173 191 188 18 130 51 202 152 234 231 259 166 191 206 279 193
218 215 216 196 198 214 286 291 299 308 322 250 150 180 268 194 179 177 175 197 116 126 125 130 142 198 346 143 165 177 186 157 172 176 171 152 176 211 199 252 283 251 145 141 188 259 136
215 214 214 208 187 189 266 299 290 309 298 309 141 143 136 11 289 226 181 160 131 171 157 144 112 225 136 196 178 181 175 205 170 156 180 166 159 183 142 207 262 135 103 194 255 355 192
211 201 195 212 203 189 194 326 297 295 316 312 191 140 130 155 267 305 300 281 191 182 138 178 157 157 164 166 189 156 171 171 159 204 152 217 197 178 188 204 110 197 259 219 13 314 247